Weather History for KCDR - December, 2013

Change the Weather History Date:

Thursday, December 19, 2013

  Actual Average Record
Temperature  
Mean Temperature 16 °F 24 °F  
Max Temperature 28 °F 38 °F 63 °F (1979)
Min Temperature 3 °F 10 °F -26 °F (1983)
Degree Days  
Heating Degree Days 49 41  
Month to date heating degree days 913 762  
Since 1 July heating degree days 2549 2446  
Cooling Degree Days 0 0  
Month to date cooling degree days 0 0  
Year to date cooling degree days 917 712  
Moisture  
Dew Point 13 °F    
Average Humidity 90    
Maximum Humidity 100    
Minimum Humidity 80    
Precipitation  
Precipitation T in 0.02 in 0.32 in (1998)
Month to date precipitation 0.04 0.32  
Year to date precipitation 19.14 17.85  
Sea Level Pressure  
Sea Level Pressure 29.96 in    
Wind  
Wind Speed 13 mph (NE)    
Max Wind Speed 22 mph    
Max Gust Speed 29 mph    
Visibility 5 miles    
Events Fog , Snow    
T = Trace of Precipitation, MM = Missing Value Source: NWS Daily Summary

Daily Weather History Graph

Daily Weather History Graph

Search for Another Location

Airport or City:

Trip Planner

Search our weather history database for the weather conditions in past years. The results will help you decide how hot, cold, wet, or windy it might be!

Date:

Astronomy

Dec. 19, 2013 Rise Set
Actual Time 7:18 AM MST 4:20 PM MST
Civil Twilight 6:46 AM MST 4:52 PM MST
Nautical Twilight 6:10 AM MST 5:28 PM MST
Astronomical Twilight 5:36 AM MST 6:03 PM MST
Moon 6:51 PM MST (12/19) 8:36 AM MST (12/19)
Length of Visible Light 10h 06m
Length of Day
9h 01m
Waning Gibbous, 95% of the Moon is Illuminated
Dec 19
Waning Gibbous
Dec 25
Last Quarter
Jan 1
New
Jan 7
First Quarter
Jan 15
Full

Hourly Weather History & Observations

Time (MST) Temp. Windchill Dew Point Humidity Pressure Visibility Wind Dir Wind Speed Gust Speed Precip Events Conditions
12:53 AM 21.9 °F - 19.9 °F 92% 29.88 in 10.0 mi Calm Calm - N/A   Clear
1:53 AM 19.9 °F 11.1 °F 18.0 °F 92% 29.87 in 10.0 mi NNE 6.9 mph - N/A   Clear
2:53 AM 21.9 °F 11.7 °F 19.9 °F 92% 29.88 in 10.0 mi NNE 9.2 mph - N/A   Clear
3:53 AM 26.1 °F 15.6 °F 24.1 °F 92% 29.86 in 10.0 mi ENE 11.5 mph - N/A   Scattered Clouds
4:22 AM 28.4 °F 18.0 °F 24.8 °F 86% 29.77 in 9.0 mi ENE 12.7 mph - N/A   Overcast
4:30 AM 28.4 °F 19.7 °F 26.6 °F 93% 29.77 in 8.0 mi ENE 9.2 mph - N/A   Overcast
4:53 AM 28.0 °F 18.1 °F 26.1 °F 92% 29.87 in 5.0 mi ENE 11.5 mph - N/A   Overcast
5:10 AM 28.4 °F 19.7 °F 26.6 °F 93% 29.79 in 2.0 mi ENE 9.2 mph - N/A   Overcast
5:23 AM 28.4 °F 19.1 °F 26.6 °F 93% 29.78 in 1.0 mi ENE 10.4 mph - N/A   Overcast
5:32 AM 28.4 °F 18.5 °F 26.6 °F 93% 29.78 in 0.5 mi ENE 11.5 mph - N/A Fog Light Freezing Fog
5:53 AM 27.0 °F 16.1 °F 27.0 °F 100% 29.87 in 0.5 mi NE 12.7 mph - N/A Fog Light Freezing Fog
6:24 AM 26.6 °F 15.2 °F 26.6 °F 100% 29.77 in 1.5 mi NE 13.8 mph - N/A   Overcast
6:53 AM 26.1 °F 15.6 °F 25.0 °F 96% 29.88 in 1.2 mi ENE 11.5 mph - N/A   Overcast
7:13 AM 26.6 °F 17.5 °F 24.8 °F 93% 29.80 in 2.0 mi NE 9.2 mph - N/A   Overcast
7:25 AM 26.6 °F 16.2 °F 24.8 °F 93% 29.79 in 1.2 mi NE 11.5 mph - N/A   Overcast
7:53 AM 26.1 °F 15.0 °F 25.0 °F 96% 29.92 in 0.2 mi NE 12.7 mph - N/A Fog Light Freezing Fog
8:05 AM 24.8 °F 12.4 °F 24.8 °F 100% 29.79 in 0.5 mi NE 15.0 mph - N/A Fog Light Freezing Fog
8:53 AM 25.0 °F 13.1 °F 24.1 °F 96% 29.93 in 1.0 mi ENE 13.8 mph - N/A   Overcast
9:09 AM 24.8 °F 12.4 °F 24.8 °F 100% 29.81 in 3.0 mi ENE 15.0 mph - N/A   Overcast
9:53 AM 24.1 °F 12.0 °F 23.0 °F 96% 29.96 in 7.0 mi ENE 13.8 mph - N/A   Overcast
10:05 AM 24.8 °F 11.9 °F 23.0 °F 93% 29.80 in 7.0 mi ENE 16.1 mph - N/A   Overcast
10:30 AM 24.8 °F 12.4 °F 23.0 °F 93% 29.79 in 5.0 mi ENE 15.0 mph - N/A   Overcast
10:53 AM 24.1 °F 13.7 °F 23.0 °F 96% 29.94 in 5.0 mi ENE 10.4 mph - N/A   Overcast
11:53 AM 19.9 °F 4.3 °F 17.1 °F 89% 29.96 in 9.0 mi NNE 19.6 mph - N/A   Overcast
12:37 PM 17.6 °F 1.3 °F 14.0 °F 86% 29.84 in 10.0 mi NNE 19.6 mph - N/A   Overcast
12:53 PM 17.1 °F 0.1 °F 12.9 °F 84% 30.00 in 10.0 mi NNE 20.7 mph 24.2 mph N/A   Overcast
1:37 PM 15.8 °F -0.6 °F 10.4 °F 79% 29.87 in 2.5 mi NNE 18.4 mph - 0.00 in Snow Light Snow
1:53 PM 14.0 °F -3.0 °F 10.0 °F 84% 30.05 in 5.0 mi NNE 18.4 mph 26.5 mph 0.00 in Snow Light Snow
2:51 PM 12.2 °F -5.3 °F 8.6 °F 85% 29.92 in 5.0 mi NNE 18.4 mph 24.2 mph 0.00 in   Overcast
2:53 PM 12.0 °F -5.6 °F 7.0 °F 80% 30.09 in 4.0 mi NE 18.4 mph - 0.00 in Snow Light Snow
3:08 PM 12.2 °F -4.3 °F 6.8 °F 79% 29.93 in 1.8 mi NE 16.1 mph - 0.00 in Snow Light Snow
3:14 PM 12.2 °F -3.1 °F 6.8 °F 79% 29.94 in 0.8 mi NNE 13.8 mph - 0.00 in Snow Light Snow
3:26 PM 10.4 °F -9.1 °F 6.8 °F 85% 29.95 in 1.5 mi NNE 21.9 mph 28.8 mph 0.00 in Snow Light Snow
3:33 PM 10.4 °F -6.6 °F 6.8 °F 85% 29.95 in 3.0 mi NNE 16.1 mph 28.8 mph 0.00 in Snow Light Snow
3:53 PM 10.0 °F -8.6 °F 6.1 °F 84% 30.13 in 5.0 mi NNE 19.6 mph - 0.00 in   Overcast
4:02 PM 10.4 °F -7.2 °F 5.0 °F 79% 29.97 in 1.8 mi NNE 17.3 mph - 0.00 in Snow Light Snow
4:19 PM 10.4 °F -5.4 °F 5.0 °F 79% 29.98 in 3.0 mi NNE 13.8 mph - 0.00 in Snow Light Snow
4:53 PM 9.0 °F -7.3 °F 3.9 °F 80% 30.17 in 2.5 mi North 13.8 mph - 0.00 in Snow Light Snow
5:12 PM 8.6 °F -8.9 °F 3.2 °F 79% 30.01 in 4.0 mi North 16.1 mph - 0.00 in Snow Light Snow
5:25 PM 8.6 °F -7.7 °F 3.2 °F 79% 30.01 in 5.0 mi North 13.8 mph - 0.00 in Snow Light Snow
5:45 PM 8.6 °F -7.7 °F 3.2 °F 79% 30.02 in 2.0 mi North 13.8 mph - 0.00 in Snow Light Snow
5:53 PM 8.1 °F -9.6 °F 3.0 °F 80% 30.19 in 2.0 mi North 16.1 mph - 0.00 in Snow Light Snow
6:06 PM 8.6 °F -8.3 °F 3.2 °F 79% 30.02 in 4.0 mi North 15.0 mph - 0.00 in Snow Light Snow
6:53 PM 7.0 °F -6.6 °F 1.9 °F 80% 30.20 in 4.0 mi North 9.2 mph - 0.00 in Snow Light Snow
7:53 PM 6.1 °F -6.8 °F 1.0 °F 80% 30.20 in 9.0 mi North 8.1 mph - 0.00 in   Overcast
8:00 PM 6.8 °F -5.9 °F 1.4 °F 79% 30.03 in 9.0 mi NNE 8.1 mph - N/A   Overcast
8:53 PM 6.1 °F -6.8 °F 1.0 °F 80% 30.23 in 10.0 mi North 8.1 mph - N/A   Overcast
9:25 PM 5.0 °F -10.0 °F -0.4 °F 78% 30.04 in 10.0 mi North 10.4 mph - N/A   Overcast
9:53 PM 5.0 °F -10.0 °F -0.0 °F 80% 30.23 in 6.0 mi NNE 10.4 mph - N/A   Haze
10:21 PM 3.2 °F -11.3 °F -0.4 °F 85% 30.04 in 8.0 mi NNE 9.2 mph - N/A   Scattered Clouds
10:51 PM 3.2 °F -9.1 °F -0.4 °F 85% 30.03 in 8.0 mi NE 6.9 mph - N/A   Scattered Clouds
10:53 PM 3.9 °F -6.9 °F -0.9 °F 80% 30.22 in 8.0 mi NE 5.8 mph - N/A   Scattered Clouds
11:53 PM 3.0 °F -4.4 °F -0.9 °F 84% 30.23 in 10.0 mi ENE 3.5 mph - N/A   Clear